OBJECT L, 64886

Orbit data source: Space-Track

You're viewing an Uncataloged Satellite

Recently launched and/or uncataloged satellites may have evolving metadata. Metadata may include but not limited to: Owner, Maufacturer, Bus, Motor, and Mission.

OBJECT L, 64886 is a satellite in SSO that was launched on Fri, 25 Jul 2025 UTC via a SOYUZ-2-1B launch vehicle from the Vostochny Cosmodrome (VOSTO). Unknown objects in Earth's orbit typically refer to objects detected orbiting the Earth but have not yet been identified or cataloged. These objects could be anything from previously untracked satellites, spent rocket stages, debris from satellite collisions, or even natural meteoroids temporarily captured by Earth's gravity.

Loading next visibility...
Identifier
64886, 2025-155L
Orbit
SSO
Country
Flag of TBDTBD
Related business
None
Manufacturer
Unknown
Mission
Operational Civil Communications
Bus & Motor
Unknown
Mass
Unknown
Launch date (UTC)
2025-07-25 (9 months ago)
Launch vehicle
SOYUZ-2-1B
Launch site
Vostochny Cosmodrome (VOSTO)
Object type
Unknown
Shape & HBR
Box, 1.1 m
Radar Cross Section
0.945 m², Medium (>0.1 m² and < 1m²)

Expand to show TLE details & history
Last TLE update: 5 hours ago

TLE from 5 hours ago
0 OBJECT L
1 64886U 25155L   26121.27894392  .00046126  00000-0  11944-2 0  9996
2 64886  97.4446  91.3438 0005431 357.6284   2.4935 15.38898497 73717
Epoch: 2026-05-01T06:41Z
TLE epoch observation values (Epoch: 2026-05-01T06:41:40.754Z)
Latitude
0.00001°
Longitude
131.71051°
Altitude
448.775 km
Speed
7.645 km/s
True Right ascension
06h 05m 22s
True Declination
0° 00' 00"
Sunlit
Object was in daylight at epoch
Visualization orbit readout
Latitude
Unknown
Longitude
Unknown
Altitude
Unknown
Speed
Unknown
Apparent Right ascension
Unknown
Apparent Declination
Unknown
Sunlit
N/A
Visualization observer readout
Local Sidereal Time
19:21:05
Azimuth
Unknown
Elevation
Unknown
Doppler factor
Unknown
Orbital elements
Apogee altitude
450.014 km
Perigee altitude
442.601 km
Semi-major axis
6,824.445 km
Eccentricity
0.00054
Inclination
97.4446°
RAAN
91.3438°
Arg. of periapsis
357.6284°
True anomaly
2.49621°
Mean anomaly
2.4935°
Eccentric anomaly
2.49485°
Mean motion
3.84984 °/min
Orbital period
93.51 mins
BSTAR
0.0011944
Loading maneuver chart data...
Computing Atmospheric mass density...
Loading historical data...
Loading historical data...
Loading historical data...
Loading historical data...
Loading historical data...
Loading historical data...
Loading historical data...

Documentation

Showing up to 5 results
|